Voltar ao catálogo

USA 357

AtivoMilitarVLEO
NORAD 59817·PAYLOAD·🇺🇸 United States

Lançado May 22, 2024 de Vandenberg Space Force Base

Loading…

Próximas Passagens (próximas 24 horas)

TLE

ObsoletoSource: Mike McCants

Época: Aug 15, 2026, 22:37 UTC

1 59817U 24096D   26227.94287861 0.00000000  00000-0  00000-0 0    08
2 59817  70.0211 161.8170 0004000 332.4499  27.5500 14.96713793    04

Acompanhe USA 357 em tempo real com AllMySat

Download on the App Store